Location: Peterborough
(44.3091°N, 78.3197°W)
Time: 23:50:55
(UTC-04:00)

S-56A Canister/Altair - Pass Details

Date: 28 March 2023
Orbit: 639 x 2492 km, 38.9° (Epoch: 02 June)

Event Time Altitude Azimuth Distance (km) Brightness Sun altitude
Rises 20:14:06 0° 248° (WSW) 4,801 12.6 -7.7°
Reaches altitude 10° 20:16:55 10° 245° (WSW) 4,035 12.1 -8.2°
Maximum altitude 20:28:08 66° 167° (SSE) 2,359 9.8 -10.1°
Enters shadow 20:42:00 12° 91° (E) 4,955 11.0 -12.5°
